Location: *
(43.2048°N, 0.1612°E)
Time: 21:48:51
(UTC+00:00)

S3M - Pass Details

Date: 30 September 2023
Orbit: 948 x 1005 km, 83.0° (Epoch: 06 December)

Event Time Altitude Azimuth Distance (km) Brightness Sun altitude
Rises 03:28:53 0° 347° (NNW) 3,739 7.2 -26.8°
Reaches altitude 10° 03:31:29 10° 343° (NNW) 2,781 6.4 -26.4°
Enters shadow 03:37:11 52° 285° (WNW) 1,215 4.1 -25.4°
